STARLINK-2752, 48692

Orbit data source: Space-Track

STARLINK-2752, 48692 is a payload satellite owned by SpaceX/Seattle (US) in LEO that was launched on Wed, 26 May 2021 UTC via an FALCON 9 launch vehicle from the Air Force Eastern Test Range (AFETR). Payload-class satellites include a variety of spacecraft equipped with specific instruments for various scientific and technological missions. These include communications satellites like Starlink; space stations such as the ISS; scientific satellites like the Hubble; Earth observation satellites from companies like Planet Labs, Umbra, and HawkEye 360; GPS; miniature CubeSats for education and research; and military/defense satellites.

Loading next visibility...
Identifier
48692, 2021-044BG
Orbit
LEO
Country
Flag of USUS
Related business
Manufacturer
SpaceX/Seattle
Mission
Operational Commercial Communications
Bus & Motor
STARLINK, Unknown motor
Mass
260 kg wet, ~248 kg dry
Launch date (UTC)
2021-05-26 (5 years ago)
Launch vehicle
FALCON 9
Launch site
Air Force Eastern Test Range (AFETR)
Object type
Payload
Rocket body
Debris
Shape & HBR
Box + 1 Pan, 10.1 m
Radar Cross Section
13.562 m², Large (>1 m²)

Expand to show TLE details & history
Last TLE update: 1 day ago

TLE from 1 day ago
0 STARLINK-2752
1 48692U 21044BG  25348.59938909  .00006203  00000-0  43491-3 0  9999
2 48692  53.0547  98.7298 0001375  92.3595 267.7551 15.06401779251514
Epoch: 2025-12-14T14:23Z
TLE epoch observation values (Epoch: 2025-12-14T14:23:07.217Z)
Latitude
-0.00005°
Longitude
159.4397°
Altitude
548.123 km
Speed
7.589 km/s
True Right ascension
06h 34m 55s
True Declination
0° 00' 00"
Sunlit
Object was in full shadow at epoch
Visualization orbit readout
Latitude
Unknown
Longitude
Unknown
Altitude
Unknown
Speed
Unknown
Apparent Right ascension
Unknown
Apparent Declination
Unknown
Sunlit
N/A
Visualization observer readout
Local Sidereal Time
13:18:47
Azimuth
Unknown
Elevation
Unknown
Doppler factor
Unknown
Orbital elements
Apogee altitude
548.429 km
Perigee altitude
546.525 km
Semi-major axis
6,925.614 km
Eccentricity
0.00014
Inclination
53.0547°
RAAN
98.7298°
Arg. of periapsis
92.3595°
True anomaly
267.73936°
Mean anomaly
267.7551°
Eccentric anomaly
267.74723°
Mean motion
3.76579 °/min
Orbital period
95.6 mins
BSTAR
0.00043491
Loading maneuver chart data...
Computing Atmospheric mass density...
Loading historical data...
Loading historical data...
Loading historical data...
Loading historical data...
Loading historical data...
Loading historical data...
Loading historical data...

Documentation

Showing up to 5 results
|